Weather Roundup
Issued by NWS

Home | Current Version | Previous Version | Text Only | Print | Product List | Glossary On
Versions: 1 2 3 4 5 6 7 8 9 10 11 12 13 14 15 16 17 18 19 20 21 22 23 24 25 26 27 28 29 30 31 32 33 34 35 36 37 38 39 40 41 42 43 44 45 46 47 48 49 50
000
NZUS93 KARX 261859
HRRWXR

CURRENT HOURLY OBSERVATIONS ACROSS
MUCH OF THE UPPER MISSISSIPPI VALLEY
NATIONAL WEATHER SERVICE LA CROSSE WI
100 PM CST MON JAN 26 2015


...SOUTHEAST MINNESOTA...


CITY           SKY/WX    TMP DP  RH WIND       PRES   REMARKS
ROCHESTER      MOSUNNY   37  31  78 NW16      29.71S WCI  28
ROCHESTER/MAYO CLOUDY    37  31  79 W16G23    29.71S WCI  28
WINONA         CLOUDY    30  27  86 SE6       29.74F WCI  24
AUSTIN         SUNNY     39  34  81 NW12G23   29.72S WCI  32
ALBERT LEA     SUNNY     43  36  75 NW12G17   29.73F
DODGE CENTER   MOSUNNY   37  34  87 NW18      29.71S WCI  27
PRESTON        CLOUDY    35  31  86 NW10      29.72S WCI  27
OWATONNA       SUNNY     39  34  81 W14G29    29.74S WCI  31
FARIBAULT      SUNNY     41  34  75 W13       29.74S
$$

...ELSEWHERE IN MINNESOTA...


CITY           SKY/WX    TMP DP  RH WIND       PRES   REMARKS
MINNEAPOLIS    PTSUNNY   43  32  65 W15       29.71F
INTNL FALLS    CLOUDY    30  24  78 NW12      29.68R WCI  20
DULUTH         LGT SNOW  27  23  85 W7        29.65R FOG     WCI  19
RED WING       CLOUDY    39  32  75 NW6       29.71S WCI  35
REDWOOD FALLS  MOSUNNY   45  34  65 NW18G26   29.80R
MANKATO        MOSUNNY   43  34  70 NW16G26   29.76S
WORTHINGTON    SUNNY     43  36  75 NW22      29.84R
FAIRMONT       SUNNY     45  34  65 NW21      29.78S
$$

...SOUTHWEST WISCONSIN...


CITY           SKY/WX    TMP DP  RH WIND       PRES   REMARKS
LA CROSSE      CLOUDY    27  23  85 S9        29.76S WCI  18
PRAIRIE DU CHI CLOUDY    27  22  82 SE3       29.79F
BOSCOBEL       CLOUDY    24  21  88 VRB5      29.80F FOG     WCI  18
LONE ROCK      NOT AVBL
PLATTEVILLE    CLOUDY    23  20  90 SE9       29.80S WCI  13
FORT MC COY    CLOUDY    24  23  95 S5        29.77F FOG     WCI  18
VIROQUA        CLOUDY    23  23 100 S7        29.74F WCI  15
WIS DELLS      NOT AVBL
$$

...ELSEWHERE IN WISCONSIN...


CITY           SKY/WX    TMP DP  RH WIND       PRES   REMARKS
MILWAUKEE      CLOUDY    27  15  61 S9        29.87F WCI  18
MADISON        LGT SNOW  21  17  84 S10       29.82S FOG     WCI  10
GREEN BAY      LGT SNOW  25  21  85 S12       29.85F FOG     WCI  14
EAU CLAIRE     CLOUDY    25  21  86 S7        29.72S FOG     WCI  17
BLACK RVR FLS  MIX PCPN  24  24 100 SE5       29.75F WCI  18
MEDFORD        LGT SNOW  19  17  92 SE7       29.72F WCI   9
WAUSAU         LGT SNOW  18  15  88 SE7       29.75S FOG     WCI   9
WIS RAPIDS     CLOUDY    21  18  88 SE7       29.79F FOG     WCI  12
MARSHFIELD     LGT SNOW  21  18  88 SE12      29.74F FOG     WCI   9
RICE LAKE      LGT SNOW  24  21  89 SE6       29.72S VSB 1   WCI  17
$$

...NORTHEAST IOWA...


CITY           SKY/WX    TMP DP  RH WIND       PRES   REMARKS
DECORAH        CLOUDY    28  27  93 SW3       29.74S
MASON CITY     SUNNY     43  36  76 NW16      29.76F
CHARLES CITY   CLOUDY    39  37  93 NW12G18   29.74F WCI  32
OELWEIN        CLOUDY    30  28  93 S15       29.76F WCI  19
$$

...ELSEWHERE IN IOWA...


CITY           SKY/WX    TMP DP  RH WIND       PRES   REMARKS
DES MOINES     MOSUNNY   50  36  58 NW21      29.82F
IOWA CITY      CLOUDY    32  29  88 S8        29.81F WCI  25
FORT DODGE     SUNNY     46  37  71 NW9       29.82R
$$

...NORTHERN ILLINOIS...


CITY           SKY/WX    TMP DP  RH WIND       PRES   REMARKS
CHICAGO-OHARE  FLURRIES  26  17  68 SW8       29.88F WCI  18
CHICAGO-MIDWAY CLOUDY    28  19  69 W9        29.90F WCI  19
MOLINE         CLOUDY    28  24  85 S8        29.81F WCI  20
ROCKFORD       FLURRIES  23  18  81 S10       29.87F WCI  12
PEORIA         CLOUDY    27  23  85 S10       29.88F WCI  17
$$

NOTE: "FAIR" INDICATES FEW OR NO CLOUDS BELOW 12,000 FEET WITH NO
SIGNIFICANT WEATHER AND/OR OBSTRUCTIONS TO VISIBILITY. WIND
SPEEDS ARE IN MILES-PER-HOUR.



USA.gov is the U.S. government's official web portal to all federal, state and local government web resources and services.